Regional Weather Roundup
Issued by NWS Raleigh/Durham, NC

Home | Current Version | Previous Version | Text Only | Print | Product List | Glossary On
Versions: 1 2 3 4 5 6 7 8 9 10 11 12 13 14 15 16 17 18 19 20 21 22 23 24 25 26 27 28 29 30 31 32 33 34 35 36 37 38 39 40 41 42 43 44 45 46 47 48 49 50
000
ASUS42 KRAH 301910
RWRRAH
NORTH CAROLINA WEATHER ROUNDUP
NATIONAL WEATHER SERVICE RALEIGH NC
200 PM EST FRI JAN 30 2015

NOTE: "FAIR" INDICATES FEW OR NO CLOUDS BELOW 12,000 FEET WITH NO
SIGNIFICANT WEATHER AND/OR OBSTRUCTIONS TO VISIBILITY.

NCZ001-053-055-056-065-067-302000-
WESTERN NORTH CAROLINA

CITY           SKY/WX    TMP DP  RH WIND       PRES   REMARKS
ASHEVILLE      SUNNY     38  17  42 N20G35    30.18S WCI  28
JEFFERSON      CLOUDY    30  13  48 NW25G35   30.08S WCI  16
MORGANTON      SUNNY     42  17  35 NW17G30   30.21S
HICKORY        SUNNY     44  16  32 NW14G26   30.15S
RUTHERFORDTON  SUNNY     47  18  31 NW10      30.17S
MOUNT AIRY     SUNNY     42  14  32 NW17G33   30.14F
BOONE          MOSUNNY   30  13  48 NW29G55   30.06F WCI  15
$$

NCZ021-022-025-041-071-084-088-302000-
CENTRAL NORTH CAROLINA

CITY           SKY/WX    TMP DP  RH WIND       PRES   REMARKS
CHARLOTTE      MOSUNNY   47  12  24 NW15G28   30.16F
GREENSBORO     MOSUNNY   45  12  26 N16G28    30.10S
WINSTON-SALEM  SUNNY     43  12  28 NW20G33   30.12F
RALEIGH-DURHAM MOSUNNY   47  16  29 NW14G28   30.09S
FORT BRAGG     SUNNY     50  16  26 NW22G28   30.09F
FAYETTEVILLE   SUNNY     50  18  28 NW17G26   30.09F
BURLINGTON     PTSUNNY   48  13  24 NW21G31   30.09F
LAURINBURG     SUNNY     51  19  28 N16G26    30.12F
$$

NCZ011-015-027-028-043-044-047-080-103-302000-
NORTHEASTERN NORTH CAROLINA

CITY           SKY/WX    TMP DP  RH WIND       PRES   REMARKS
ROCKY MT-WILSO MOSUNNY   49  18  29 NW20G29   30.06S
GREENVILLE     MOSUNNY   46  19  34 NW15G24   30.06S
WASHINGTON     CLOUDY    47  22  38 NW16G24   30.03S
ELIZABETH CITY CLOUDY    44  27  51 NW16G23   30.00F
MANTEO         CLOUDY    43  28  56 N10G17    30.00S
CAPE HATTERAS  CLOUDY    43  32  65 N9        29.99S
$$

NCZ078-087-090-091-093-098-101-302000-
SOUTHEASTERN NORTH CAROLINA

CITY           SKY/WX    TMP DP  RH WIND       PRES   REMARKS
LUMBERTON      SUNNY     51  24  34 NW22      30.10F
GOLDSBORO      PTSUNNY   48  25  40 NW16G26   30.06S
KINSTON        MOSUNNY   48  21  34 NW9G24    30.07R
KENANSVILLE    PTSUNNY   47  20  35 NW14G21   30.08S
NEW BERN       CLOUDY    49  24  37 NW13G28   30.05R
CHERRY POINT   CLOUDY    49  24  37 NW17      30.03S
BEAUFORT       CLOUDY    49  30  48 NW22G28   30.02R
JACKSONVILLE   PTSUNNY   50  24  36 N23G30    30.04S
WILMINGTON     MOSUNNY   52  27  38 NW16G28   30.05F
$$




USA.gov is the U.S. government's official web portal to all federal, state and local government web resources and services.